User: anonymous   Login
Location: Stigler
(35.2540°N, 95.1230°W)
Time: 09:01:24
(UTC-06:00)
Language:

Cosmos 1805 - Orbit

View from above orbital plane
View from above orbital plane
View from above satellite
View from above satellite

Ground track
Ground track

The orbit data is extracted from the following two-line orbital elements,

1 17191U 86097A   16037.82170614  .00001978  00000-0  11729-3 0  9993
2 17191  82.4747 158.0336 0004631   5.3445 354.7833 15.10835323588672
Epoch (UTC): 06 February 2016 19:43:15
Eccentricity: 0.0004631
inclination: 82.4747°
perigee height: 530 km
apogee height: 537 km
right ascension of ascending node: 158.0336°
argument of perigee: 5.3445°
revolutions per day: 15.10835323
mean anomaly at epoch: 354.7833°
orbit number at epoch: 58867

The dashed part of the orbit path shows where the satellite is in the earth's shadow,  

DLR